Regional Weather Roundup
Issued by NWS Cleveland, OH

Home | Current Version | Previous Version | Text Only | Print | Product List | Glossary Off
Versions: 1 2 3 4 5 6 7 8 9 10 11 12 13 14 15 16 17 18 19 20 21 22 23 24 25 26 27 28 29 30 31 32 33 34 35 36 37 38 39 40 41 42 43 44 45 46 47 48 49 50

000
ASUS41 KCLE 171410
RWRCLE
OHIO REGIONAL WEATHER ROUNDUP
NATIONAL WEATHER SERVICE WILMINGTON, OH
900 AM EST WED DEC 17 2014

NOTE: "FAIR" INDICATES FEW OR NO CLOUDS BELOW 12,000 FEET WITH NO
SIGNIFICANT WEATHER AND/OR OBSTRUCTIONS TO VISIBILITY.

OHZ001>008-015>018-024>027-034-035-043-044-171500-
   NORTHWEST OHIO

CITY           SKY/WX    TMP DP  RH WIND       PRES   REMARKS
DEFIANCE       NOT AVBL
FINDLAY        CLOUDY    33  26  75 W18       30.12R WCI  22
TOLEDO EXPRESS CLOUDY    32  23  69 W16G30    30.10R WCI  21
TOLEDO METCALF CLOUDY    34  24  67 W16G29    30.10R WCI  24
LIMA           CLOUDY    32  26  78 W17       30.14R WCI  21
$$

OHZ009>014-019>023-028>033-038-089-171500-
   NORTHEAST OHIO

CITY           SKY/WX    TMP DP  RH WIND       PRES   REMARKS
CLE-HOPKINS    CLOUDY    33  26  75 W17G32    30.08R WCI  22
CLE-LAKEFRONT  CLOUDY    35  28  75 W23G36    30.05R WCI  23
CUY CO. ARPT   CLOUDY    36  30  80 W23G38    30.05R
LORAIN-ELYRIA  CLOUDY    33  26  75 W13       30.08R WCI  24
ASHTABULA      LGT SNOW  34  31  88 W17G23    30.01R FOG     WCI  23
AKRON-CANTON   FLURRIES  33  29  85 W18G25    30.05R WCI  22
WOOSTER        CLOUDY    32  28  85 W13       30.08R WCI  22
MANSFIELD      CLOUDY    31  26  82 W10G26    30.08R WCI  22
YOUNGSTOWN     LGT SNOW  34  31  88 W16       30.01R VSB 3/4 WCI  24
$$

OHZ042-051>053-060>062-070>072-077>081-171500-
  SOUTHWEST OHIO

CITY           SKY/WX    TMP DP  RH WIND       PRES   REMARKS
CINC-COVINGTON CLOUDY    31  25  78 W9        30.23R WCI  23
CINC-LUNKEN    CLOUDY    32  25  75 W9        30.26R WCI  24
HAMILTON       FLURRIES  32  28  85 W8        30.25R WCI  25
DAYTON         CLOUDY    31  25  78 W15       30.20R WCI  20
WRIGHT-PAT AFB CLOUDY    31  26  81 W12       30.20R WCI  21
DAYTON GENERAL CLOUDY    30  25  81 W13G18    30.20R WCI  20
WILMINGTON     CLOUDY    30  23  75 W14G23    30.20R WCI  19
$$

OHZ036-037-039>041-045>050-054>059-063>069-073>076-082>088-171500-
  CENTRAL AND SOUTHEAST OHIO

CITY           SKY/WX    TMP DP  RH WIND       PRES   REMARKS
COLUMBUS       CLOUDY    32  25  75 W20       30.16R WCI  20
OSU AIRPORT    CLOUDY    32  24  72 W18       30.16R WCI  20
BOLTON FIELD   CLOUDY    32  27  80 W13       30.18R WCI  22
RICKENBACK AFB CLOUDY    32  26  77 W15       30.18R WCI  22
NEWARK         CLOUDY    34  26  72 W15G25    30.14R WCI  24
MARION         CLOUDY    32  27  81 W14       30.13R WCI  22
LANCASTER      CLOUDY    33  26  75 W14G23    30.17R WCI  23
ZANESVILLE     CLOUDY    33  27  78 W14G22    30.13S WCI  23
NEW PHILLY     CLOUDY    35  30  82 W12G20    30.10S WCI  27
$$


USA.gov is the U.S. government's official web portal to all federal, state and local government web resources and services.